When you browse on this site, cookies collect data to enhance your experience and personalize the content and advertising you see.
Visit our Privacy Policy to learn more. By continuing to use the site, you agree to this use of cookies and data.
  • Em Portugal
  • Lista de países
  • Para 7 dias
  • Temperatura da água
  • Mapas de satélite
  • Mapa do tempo
  • Widgets de tempo
  • user-avatar
    Iniciar Sessão

    Previsão horária em Namur

    Hoje, 25 Maio, Sábado

    Tempo Temperatura Precipitação Vento Pressão Humidade
    00:00 +8°C° 0 mm 0 m/s 752 mmHg 78%
    01:00 +8°C° 0 mm 0 m/s 752 mmHg 80%
    02:00 +8°C° 0 mm 0 m/s 752 mmHg 81%
    03:00 +7°C° 0 mm 0 m/s 752 mmHg 83%
    04:00 +8°C° 0 mm 0 m/s 752 mmHg 80%
    05:00 +10°C° 0 mm 0 m/s 752 mmHg 78%
    06:00 +11°C° 0 mm 0 m/s 753 mmHg 76%
    07:00 +13°C° 0 mm 1 m/s 753 mmHg 74%
    08:00 +15°C° 0 mm 1 m/s 753 mmHg 72%
    09:00 +16°C° 0 mm 2 m/s 753 mmHg 70%
    10:00 +16°C° 0.3 mm 2 m/s 753 mmHg 73%
    11:00 +16°C° 0.3 mm 1 m/s 752 mmHg 77%
    12:00 +15°C° 0.3 mm 1 m/s 752 mmHg 81%
    13:00 +18°C° 0 mm 1 m/s 752 mmHg 76%
    14:00 +19°C° 0 mm 1 m/s 752 mmHg 71%
    15:00 +20°C° 0 mm 1 m/s 752 mmHg 65%
    16:00 +19°C° 0.3 mm 1 m/s 752 mmHg 71%
    17:00 +19°C° 0.3 mm 1 m/s 752 mmHg 76%
    18:00 +18°C° 0.3 mm 1 m/s 752 mmHg 82%
    19:00 +16°C° 0 mm 1 m/s 752 mmHg 84%
    20:00 +14°C° 0 mm 1 m/s 752 mmHg 87%
    21:00 +13°C° 0 mm 1 m/s 752 mmHg 90%
    22:00 +12°C° 0 mm 2 m/s 752 mmHg 90%
    23:00 +10°C° 0 mm 2 m/s 752 mmHg 91%

    Amanhã, 26 Maio, Domingo

    Tempo Temperatura Precipitação Vento Pressão Humidade
    00:00 +10°C° 0 mm 2 m/s 752 mmHg 91%
    01:00 +9°C° 0 mm 2 m/s 752 mmHg 92%
    02:00 +9°C° 0 mm 2 m/s 752 mmHg 92%
    03:00 +9°C° 0 mm 2 m/s 751 mmHg 93%
    04:00 +10°C° 0 mm 3 m/s 751 mmHg 93%
    05:00 +11°C° 0 mm 3 m/s 751 mmHg 93%
    06:00 +12°C° 0 mm 4 m/s 751 mmHg 93%
    07:00 +14°C° 0 mm 4 m/s 751 mmHg 89%
    08:00 +15°C° 0 mm 4 m/s 751 mmHg 86%
    09:00 +17°C° 0 mm 5 m/s 751 mmHg 83%
    10:00 +19°C° 0.1 mm 5 m/s 751 mmHg 80%
    11:00 +20°C° 0.1 mm 5 m/s 751 mmHg 77%
    12:00 +21°C° 0.1 mm 6 m/s 751 mmHg 75%
    13:00 +20°C° 0.1 mm 6 m/s 750 mmHg 76%
    14:00 +20°C° 0.1 mm 6 m/s 750 mmHg 77%
    15:00 +20°C° 0.1 mm 6 m/s 750 mmHg 78%
    16:00 +19°C° 0 mm 6 m/s 749 mmHg 81%
    17:00 +17°C° 0 mm 5 m/s 749 mmHg 83%
    18:00 +16°C° 0 mm 5 m/s 749 mmHg 86%
    19:00 +16°C° 0 mm 5 m/s 749 mmHg 88%
    20:00 +15°C° 0 mm 5 m/s 749 mmHg 90%
    21:00 +15°C° 0 mm 5 m/s 749 mmHg 92%
    22:00 +15°C° 0.1 mm 5 m/s 749 mmHg 92%
    23:00 +15°C° 0.1 mm 5 m/s 749 mmHg 93%

    Depois de amanhã, 27 Maio, Segunda-feira

    Tempo Temperatura Precipitação Vento Pressão Humidade
    00:00 +15°C° 0.1 mm 5 m/s 748 mmHg 93%
    01:00 +15°C° 0.1 mm 5 m/s 748 mmHg 94%
    02:00 +14°C° 0.1 mm 5 m/s 748 mmHg 94%
    03:00 +14°C° 0.1 mm 4 m/s 748 mmHg 95%
    04:00 +14°C° 0.1 mm 4 m/s 748 mmHg 95%
    05:00 +14°C° 0.1 mm 4 m/s 748 mmHg 94%
    06:00 +14°C° 0.1 mm 3 m/s 749 mmHg 94%
    07:00 +14°C° 0.1 mm 4 m/s 749 mmHg 88%
    08:00 +15°C° 0.1 mm 4 m/s 749 mmHg 82%
    09:00 +17°C° 0.1 mm 4 m/s 749 mmHg 76%
    10:00 +18°C° 0 mm 4 m/s 749 mmHg 72%
    11:00 +18°C° 0 mm 4 m/s 749 mmHg 67%
    12:00 +19°C° 0 mm 4 m/s 749 mmHg 62%
    13:00 +19°C° 0 mm 4 m/s 749 mmHg 63%
    14:00 +18°C° 0 mm 3 m/s 748 mmHg 64%
    15:00 +18°C° 0 mm 3 m/s 748 mmHg 65%
    16:00 +18°C° 0 mm 3 m/s 748 mmHg 70%
    17:00 +17°C° 0 mm 2 m/s 748 mmHg 75%
    18:00 +16°C° 0 mm 2 m/s 748 mmHg 79%
    19:00 +15°C° 0 mm 1 m/s 748 mmHg 80%
    20:00 +14°C° 0 mm 1 m/s 748 mmHg 80%
    21:00 +12°C° 0 mm 0 m/s 748 mmHg 80%
    22:00 +13°C° 0 mm 1 m/s 748 mmHg 82%
    23:00 +12°C° 0 mm 1 m/s 747 mmHg 84%

    28 Maio, Terça-feira

    Tempo Temperatura Precipitação Vento Pressão Humidade
    00:00 +12°C° 0 mm 2 m/s 747 mmHg 86%
    01:00 +12°C° 0 mm 2 m/s 747 mmHg 88%
    02:00 +10°C° 0 mm 2 m/s 746 mmHg 89%
    03:00 +10°C° 0 mm 2 m/s 746 mmHg 91%
    04:00 +10°C° 0.1 mm 3 m/s 746 mmHg 91%
    05:00 +11°C° 0.1 mm 3 m/s 746 mmHg 92%
    06:00 +11°C° 0.1 mm 3 m/s 746 mmHg 92%
    07:00 +12°C° 0.3 mm 4 m/s 746 mmHg 87%
    08:00 +13°C° 0.3 mm 4 m/s 746 mmHg 82%
    09:00 +15°C° 0.3 mm 4 m/s 746 mmHg 77%
    10:00 +15°C° 0.5 mm 4 m/s 746 mmHg 76%
    11:00 +15°C° 0.5 mm 4 m/s 746 mmHg 74%
    12:00 +17°C° 0.5 mm 4 m/s 746 mmHg 72%
    13:00 +17°C° 0.7 mm 4 m/s 746 mmHg 73%
    14:00 +17°C° 0.7 mm 4 m/s 746 mmHg 74%
    15:00 +17°C° 0.7 mm 4 m/s 746 mmHg 75%
    16:00 +16°C° 0.5 mm 3 m/s 746 mmHg 78%
    17:00 +16°C° 0.5 mm 3 m/s 747 mmHg 81%
    18:00 +14°C° 0.5 mm 3 m/s 747 mmHg 85%
    19:00 +12°C° 0 mm 3 m/s 748 mmHg 86%
    20:00 +11°C° 0 mm 3 m/s 748 mmHg 88%
    21:00 +9°C° 0 mm 3 m/s 749 mmHg 90%
    22:00 +8°C° 0 mm 2 m/s 749 mmHg 91%
    23:00 +7°C° 0 mm 2 m/s 749 mmHg 92%

    29 Maio, Quarta-feira

    Tempo Temperatura Precipitação Vento Pressão Humidade
    00:00 +7°C° 0 mm 2 m/s 750 mmHg 93%
    01:00 +6°C° 0 mm 2 m/s 750 mmHg 94%
    02:00 +7°C° 0 mm 1 m/s 750 mmHg 94%
    03:00 +7°C° 0 mm 1 m/s 751 mmHg 95%
    04:00 +8°C° 0 mm 1 m/s 751 mmHg 95%
    05:00 +8°C° 0 mm 2 m/s 752 mmHg 95%
    06:00 +9°C° 0 mm 2 m/s 752 mmHg 94%
    07:00 +10°C° 0.1 mm 2 m/s 753 mmHg 90%
    08:00 +12°C° 0.1 mm 2 m/s 753 mmHg 86%
    09:00 +12°C° 0.1 mm 3 m/s 753 mmHg 82%
    10:00 +13°C° 0.1 mm 3 m/s 754 mmHg 79%
    11:00 +14°C° 0.1 mm 3 m/s 754 mmHg 75%
    12:00 +16°C° 0.1 mm 3 m/s 754 mmHg 72%
    13:00 +16°C° 0.1 mm 3 m/s 755 mmHg 68%
    14:00 +17°C° 0.1 mm 3 m/s 755 mmHg 65%
    15:00 +17°C° 0.1 mm 3 m/s 755 mmHg 61%
    16:00 +17°C° 0 mm 3 m/s 755 mmHg 65%
    17:00 +16°C° 0 mm 3 m/s 756 mmHg 68%
    18:00 +16°C° 0 mm 3 m/s 756 mmHg 71%
    19:00 +14°C° 0 mm 2 m/s 756 mmHg 74%
    20:00 +10°C° 0 mm 2 m/s 757 mmHg 77%
    21:00 +8°C° 0 mm 2 m/s 757 mmHg 80%
    22:00 +9°C° 0 mm 1 m/s 757 mmHg 80%
    23:00 +8°C° 0 mm 1 m/s 758 mmHg 81%

    30 Maio, Quinta-feira

    Tempo Temperatura Precipitação Vento Pressão Humidade
    00:00 +6°C° 0 mm 0 m/s 758 mmHg 82%
    01:00 +7°C° 0 mm 1 m/s 758 mmHg 82%
    02:00 +6°C° 0 mm 2 m/s 757 mmHg 82%
    03:00 +6°C° 0 mm 2 m/s 757 mmHg 82%
    04:00 +7°C° 0 mm 2 m/s 757 mmHg 80%
    05:00 +9°C° 0 mm 3 m/s 757 mmHg 79%
    06:00 +10°C° 0 mm 3 m/s 757 mmHg 78%
    07:00 +11°C° 0 mm 4 m/s 757 mmHg 76%
    08:00 +12°C° 0 mm 4 m/s 757 mmHg 73%
    09:00 +14°C° 0 mm 5 m/s 757 mmHg 71%
    10:00 +15°C° 0 mm 5 m/s 756 mmHg 69%
    11:00 +16°C° 0 mm 6 m/s 756 mmHg 67%
    12:00 +17°C° 0 mm 6 m/s 756 mmHg 65%
    13:00 +17°C° 0.1 mm 6 m/s 755 mmHg 71%
    14:00 +16°C° 0.1 mm 5 m/s 755 mmHg 77%
    15:00 +15°C° 0.1 mm 5 m/s 755 mmHg 82%
    16:00 +15°C° 0.1 mm 5 m/s 754 mmHg 84%
    17:00 +15°C° 0.1 mm 4 m/s 754 mmHg 86%
    18:00 +15°C° 0.1 mm 4 m/s 754 mmHg 88%
    19:00 +15°C° 0.2 mm 5 m/s 754 mmHg 90%
    20:00 +14°C° 0.2 mm 5 m/s 754 mmHg 91%
    21:00 +14°C° 0.2 mm 5 m/s 754 mmHg 93%
    22:00 +13°C° 0 mm 5 m/s 754 mmHg 94%
    23:00 +13°C° 0 mm 5 m/s 754 mmHg 95%
    Mostrar mais